Location: Unspecified
(43.4680°N, 87.1740°E)
Time: 22:04:58
(UTC+00:00)

Tiangong - Pass Details

Date: 05 October 2021
Orbit: 382 x 384 km, 41.5° (Epoch: 20 October)

Event Time Altitude Azimuth Distance (km) Brightness Sun altitude
Exits shadow 23:05:38 22° 233° (SW) 882 2.4 -13.3°
Maximum altitude 23:06:37 27° 201° (SSW) 773 2.3 -13.1°
Drops below altitude 10° 23:09:20 10° 141° (SE) 1,391 4.4 -12.6°
Sets 23:11:34 0° 129° (SE) 2,241 5.7 -12.2°
